This demonstration page uses our WeatherBlox Daily Observations layout. Learn more.

Left ArrowRight Arrow

40.92945, -100.16068

Hourly Observations for September 13, 2017

Temp ( °F °C ) Dew Point ( °F °C ) Humidity (%) Winds ( mph kmh ) Pressure ( in mb ) Visibility ( mi km ) Precip ( " mm )
12:15 am 00:15 Clear 67 19.4 56 13.3 68 68 SSE 6 9 29.83 1010 10 16 0.00 0.00
12:35 am 00:35 Clear 67 19.4 56 13.2 68 68 SE 7 11 29.83 1010 10 16 0.00 0.00
12:55 am 00:55 Clear 66 19.1 55 13 68 68 SSE 6 9 29.80 1009 10 16 0.00 0.00
1:15 am 01:15 Clear 66 19 55 13 68 68 S 7 11 29.80 1009 10 16 0.00 0.00
1:35 am 01:35 Partly Cloudy 64 17.8 55 13 74 74 N 6 9 29.85 1011 10 16 0.00 0.00
1:55 am 01:55 Mostly Cloudy 63 17 57 13.7 81 81 N 7 11 29.85 1011 10 16 0.00 0.00
2:15 am 02:15 Partly Cloudy 61 16 57 13.8 87 87 NW 6 9 29.88 1012 10 16 0.00 0.00
2:35 am 02:35 Clear 60 15.5 56 13.5 88 88 SSE 3 6 29.88 1012 10 16 0.00 0.00
2:55 am 02:55 Clear 60 15.8 57 13.9 89 89 SSE 10 17 29.83 1010 10 16 0.00 0.00
3:15 am 03:15 Clear 65 18.1 56 13.5 75 75 SE 8 13 29.80 1009 10 16 0.00 0.00
3:35 am 03:35 Clear 67 19.2 55 12.8 67 67 SE 13 20 29.74 1007 10 16 0.00 0.00
3:55 am 03:55 Clear 67 19.3 55 12.5 65 65 SE 10 17 29.74 1007 10 16 0.00 0.00
4:15 am 04:15 Clear 63 17.4 56 13.1 76 76 NW 8 13 29.80 1009 10 16 0.00 0.00
4:35 am 04:35 Clear 61 16.2 56 13.2 83 83 WNW 3 6 29.80 1009 10 16 0.00 0.00
4:55 am 04:55 Clear 62 16.6 56 13.6 83 83 SSW 6 9 29.77 1008 10 16 0.00 0.00
5:15 am 05:15 Clear 64 17.5 56 13.4 77 77 SE 6 9 29.77 1008 10 16 0.00 0.00
5:35 am 05:35 Partly Cloudy 64 17.7 56 13.6 77 77 NNE 5 7 29.77 1008 10 16 0.00 0.00
5:55 am 05:55 Partly Cloudy 61 16.2 57 14.1 87 87 Calm 29.77 1008 10 16 0.01 0.25
6:15 am 06:15 Partly Cloudy 61 16.1 58 14.3 89 89 SE 5 7 29.77 1008 10 16 0.00 0.00
6:35 am 06:35 Partly Cloudy 62 16.7 58 14.3 86 86 S 5 7 29.77 1008 10 16 0.00 0.00
6:55 am 06:55 Mostly Cloudy with Light Rain 62 16.5 58 14.5 88 88 E 9 15 29.77 1008 10 16 0.00 0.00
7:15 am 07:15 Partly Cloudy with Light Rain 62 16.5 58 14.7 89 89 E 6 9 29.80 1009 10 16 0.00 0.00
7:35 am 07:35 Partly Cloudy 62 16.5 58 14.5 88 88 ESE 5 7 29.80 1009 10 16 0.00 0.00
7:55 am 07:55 Mostly Cloudy with Light Rain 62 16.9 58 14.5 86 86 SSE 9 15 29.77 1008 10 16 0.01 0.25
8:15 am 08:15 Sunny 62 16.7 57 14.1 85 85 SSE 5 7 29.77 1008 10 16 0.00 0.00
8:35 am 08:35 Partly Cloudy 64 17.6 57 14.1 80 80 SSW 8 13 29.77 1008 10 16 0.00 0.00
8:55 am 08:55 Partly Cloudy 67 19.2 57 13.9 72 72 SSW 9 15 29.74 1007 10 16 0.00 0.00
9:15 am 09:15 Sunny 68 20.1 57 13.7 67 67 S 10 17 29.74 1007 10 16 0.00 0.00
9:35 am 09:35 Sunny 70 21.1 57 13.9 64 64 S 8 13 29.74 1007 10 16 0.00 0.00
9:55 am 09:55 Sunny 73 22.5 57 14.1 59 59 S 7 11 29.71 1006 10 16 0.00 0.00
10:15 am 10:15 Sunny 74 23.5 57 13.8 55 55 S 7 11 29.68 1005 10 16 0.00 0.00
10:35 am 10:35 Sunny 76 24.7 58 14.4 53 53 S 8 13 29.68 1005 10 16 0.00 0.00
10:55 am 10:55 Sunny 79 25.9 57 14 48 48 S 10 17 29.65 1004 10 16 0.00 0.00
11:15 am 11:15 Sunny 80 26.5 56 13.5 45 45 S 10 17 29.65 1004 10 16 0.00 0.00
11:35 am 11:35 Sunny 80 26.9 56 13.3 43 43 SSW 13 20 29.65 1004 10 16 0.00 0.00
11:55 am 11:55 Sunny 81 27.4 56 13.4 42 42 SW 13 20 29.65 1004 10 16 0.00 0.00
12:15 pm 12:15 Partly Cloudy 81 27.2 57 14.1 45 45 SW 10 17 29.65 1004 10 16 0.00 0.00
12:35 pm 12:35 Partly Cloudy 78 25.8 58 14.4 49 49 SSW 6 9 29.65 1004 10 16 0.00 0.00
12:55 pm 12:55 Sunny 81 27.3 58 14.6 46 46 S 12 19 29.65 1004 10 16 0.00 0.00
1:15 pm 13:15 Sunny 83 28.3 56 13.4 40 40 S 10 17 29.65 1004 10 16 0.00 0.00
1:35 pm 13:35 Sunny 84 29 55 13 37 37 SSW 13 20 29.59 1002 10 16 0.00 0.00
1:55 pm 13:55 Sunny 86 29.8 56 13.3 36 36 S 13 20 29.59 1002 10 16 0.00 0.00
2:15 pm 14:15 Sunny 86 29.8 55 13 36 36 S 13 20 29.59 1002 10 16 0.00 0.00
2:35 pm 14:35 Sunny 87 30.3 56 13.1 35 35 S 14 22 29.59 1002 10 16 0.00 0.00
2:55 pm 14:55 Sunny 88 30.9 56 13.6 35 35 S 15 24 29.56 1001 10 16 0.00 0.00
3:15 pm 15:15 Sunny 88 31.3 56 13.3 33 33 SSE 10 17 29.56 1001 10 16 0.00 0.00
3:35 pm 15:35 Sunny 89 31.8 56 13.6 33 33 S 12 19 29.53 1000 10 16 0.00 0.00
3:55 pm 15:55 Sunny 89 31.8 56 13.5 33 33 SSE 13 20 29.53 1000 10 16 0.00 0.00
4:15 pm 16:15 Sunny 90 32.3 56 13.6 32 32 SSE 13 20 29.50 999 10 16 0.00 0.00
4:35 pm 16:35 Sunny 90 32.2 57 13.7 32 32 SE 13 20 29.50 999 10 16 0.00 0.00
4:55 pm 16:55 Sunny 90 32.2 56 13.6 32 32 SE 12 19 29.50 999 10 16 0.00 0.00
5:15 pm 17:15 Sunny 90 32.4 56 13.1 31 31 SSE 12 19 29.50 999 10 16 0.00 0.00
5:35 pm 17:35 Sunny 90 32.4 55 12.8 30 30 SSE 13 20 29.50 999 10 16 0.00 0.00
5:55 pm 17:55 Sunny 90 32.2 55 12.8 31 31 SE 10 17 29.50 999 10 16 0.00 0.00
6:15 pm 18:15 Sunny 89 31.9 55 12.8 31 31 SE 14 22 29.50 999 10 16 0.00 0.00
6:35 pm 18:35 Sunny 87 30.6 56 13.2 34 34 ESE 9 15 29.53 1000 10 16 0.00 0.00
6:55 pm 18:55 Sunny 83 28.5 58 14.6 43 43 ESE 9 15 29.53 1000 10 16 0.00 0.00
7:15 pm 19:15 Sunny 83 28.4 57 13.9 41 41 SE 12 19 29.53 1000 10 16 0.00 0.00
7:35 pm 19:35 Sunny 82 27.8 57 14.1 43 43 ESE 10 17 29.53 1000 10 16 0.00 0.00
7:55 pm 19:55 Clear 81 27 58 14.6 47 47 SE 9 15 29.56 1001 7 11 0.00 0.00
8:15 pm 20:15 Clear 79 26.2 59 14.8 50 50 SE 8 13 29.56 1001 10 16 0.00 0.00
8:35 pm 20:35 Clear 79 26.2 58 14.5 49 49 SE 6 9 29.56 1001 10 16 0.00 0.00
8:55 pm 20:55 Clear 76 24.5 58 14.7 54 54 SE 7 11 29.56 1001 10 16 0.00 0.00
9:15 pm 21:15 Clear 74 23.5 59 15 59 59 ESE 8 13 29.59 1002 10 16 0.00 0.00
9:35 pm 21:35 Clear 74 23.5 58 14.5 57 57 SE 7 11 29.59 1002 10 16 0.00 0.00
9:55 pm 21:55 Clear 74 23.1 57 14.1 57 57 SSE 7 11 29.59 1002 10 16 0.00 0.00
10:15 pm 22:15 Clear 70 21.3 58 14.5 65 65 SSE 7 11 29.59 1002 10 16 0.00 0.00
10:35 pm 22:35 Clear 71 21.8 57 14.1 62 62 SSE 8 13 29.59 1002 10 16 0.00 0.00
10:55 pm 22:55 Clear 71 21.6 57 13.9 62 62 SSE 8 13 29.59 1002 10 16 0.00 0.00
11:15 pm 23:15 Clear 71 21.7 56 13.5 60 60 SE 5 7 29.59 1002 10 16 0.00 0.00
11:35 pm 23:35 Clear 67 19.2 57 13.8 71 71 ESE 5 7 29.62 1003 10 16 0.00 0.00
11:55 pm 23:55 Clear 67 19.3 57 13.8 71 71 ESE 5 7 29.62 1003 10 16 0.00 0.00

Powered by AerisWeather